Location: Unspecified
(0.0000°N, 0.0000°E)
Time: 16:49:46
(UTC+00:00)

Vanguard 2 Rocket - Pass Details

Date: 23 November 2019
Orbit: 554 x 3326 km, 32.9° (Epoch: 13 December)

Event Time Altitude Azimuth Distance (km) Brightness Sun altitude
Rises 05:22:37 0° 330° (NNW) 3,821 9.6 -5.5°
Reaches altitude 10° 05:25:16 10° 342° (NNW) 3,168 9.3 -4.9°
Maximum altitude 05:32:24 31° 42° (NE) 2,688 9.6 -3.3°
Drops below altitude 10° 05:43:43 10° 97° (E) 5,119 12.6 -0.6°
Sets 05:49:22 0° 106° (ESE) 6,576 14.6 0.7°
